Effective Sunday, March 17, 2024, the National Weather Service National Data Buoy Center will discontinue its Dial-A-Buoy Interactive Voice Response system. For more information, see Service Change Notice 24-06 (PDF).

Station APCF1 - 8728690 - Apalachicola, FL Image indicating link to RSS feed of recent meteorological observations for station APCF1


Conditions at APCF1 as of
(1:30 am EST)
0630 GMT on 02/27/2024:
     

Click on the graph icon in the table below to see a time series plot of the last five days of that observation.

5-day plot - Wind Direction Wind Direction (WDIR):SSW ( 200 deg true )
5-day plot - Wind Speed Wind Speed (WSPD): 12.0 kts
5-day plot - Wind Gust Wind Gust (GST): 15.0 kts
5-day plot - Atmospheric Pressure Atmospheric Pressure (PRES):30.07 in
5-day plot - Air Temperature Air Temperature (ATMP): 64.6 °F
5-day plot - Water Temperature Water Temperature (WTMP): 61.0 °F
5-day plot - Wind Speed at 10 Meters Wind Speed at 10 meters (WSPD10M): 13.6 kts
5-day plot - Wind Speed at 20 Meters Wind Speed at 20 meters (WSPD20M): 13.6 kts
5-day plot -  Wind Speed, Wind Gust and Atmospheric Pressure Combined plot of Wind Speed, Gust, and Air Pressure
NOS Water Level Observation Network Water Level
Previous observations
TIME
(EST)
5-day plot - Wind Direction
WDIR
 
5-day plot - Wind Speed
WSPD
kts
5-day plot - Wind Gust
GST
kts
5-day plot - Wave Height
WVHT
ft
5-day plot - Dominant Wave Period
DPD
sec
5-day plot - Average Wave Period
APD
sec
5-day plot - Mean Wave Direction
MWD
 
5-day plot - Atmospheric Pressure
PRES
in
5-day plot - Pressure Tendency
PTDY
in
5-day plot - Air Temperature
ATMP
°F
5-day plot - Water Temperature
WTMP
°F
5-day plot - Dew Point
DEWP
°F
5-day plot - Salinity
SAL
psu
5-day plot - Visibility
VIS
nmi
5-day plot - Tide (above MLLW)
TIDE
ft
2024-02-27 01:24 amSSW 12.0 14.0----30.07- 64.4 61.0----
2024-02-27 01:18 amSSW 11.1 13.0----30.08- 64.4 61.0----
2024-02-27 01:12 amSSW 11.1 12.0----30.08- 64.4 61.0----
2024-02-27 01:06 amSSW 11.1 12.0----30.08- 64.2 61.0----
2024-02-27 01:00 amSSW 9.9 12.0----30.08-0.02 64.2 61.0----
2024-02-27 12:54 amSSW 11.1 14.0----30.08- 64.2 61.0----
2024-02-27 12:48 amSSW 11.1 13.0----30.07- 64.2 61.0----
2024-02-27 12:42 amSSW 9.9 12.0----30.08- 64.2 61.0----
2024-02-27 12:36 amSSW 8.9 11.1----30.08- 64.0 61.0----
2024-02-27 12:30 amSSW 8.9 11.1----30.09- 64.0 61.0----
2024-02-27 12:24 amSSW 8.0 9.9----30.09- 64.0 61.0----
2024-02-27 12:18 amSSW 8.0 9.9----30.09- 64.0 60.8----
2024-02-27 12:12 amSSW 8.0 9.9----30.09- 64.0 60.8----
2024-02-27 12:06 amSSW 8.9 11.1----30.09- 64.0 60.8----
2024-02-27 12:00 amSSW 8.0 9.9----30.10+0.00 64.0 60.8----
2024-02-26 11:54 pmSSW 8.9 11.1----30.10- 64.2 60.8----
2024-02-26 11:48 pmSSW 9.9 12.0----30.10- 64.2 61.0----
2024-02-26 11:42 pmSSW 8.9 11.1----30.10- 64.2 61.0----
2024-02-26 11:36 pmSSW 9.9 11.1----30.10- 64.2 61.0----
2024-02-26 11:30 pmSSW 11.1 13.0----30.10- 64.2 61.0----
2024-02-26 11:24 pmSSW 11.1 13.0----30.10- 64.4 61.0----
2024-02-26 11:18 pmSSW 11.1 13.0----30.10- 64.4 61.0----
2024-02-26 11:12 pmSSW 11.1 12.0----30.10- 64.2 61.0----
2024-02-26 11:06 pm S 9.9 13.0----30.10- 64.2 61.0----
2024-02-26 11:00 pm S 11.1 12.0----30.09+0.01 64.2 61.0----
2024-02-26 10:54 pm S 11.1 13.0----30.09- 64.0 61.0----
2024-02-26 10:48 pm S 12.0 13.0----30.09- 64.2 61.0----
2024-02-26 10:42 pmSSW 11.1 13.0----30.10- 64.4 61.0----
2024-02-26 10:36 pmSSW 11.1 12.0----30.10- 64.4 61.0----
2024-02-26 10:30 pmSSW 9.9 12.0----30.10- 64.4 61.0----
2024-02-26 10:24 pm S 11.1 12.0----30.10- 64.4 61.0----
2024-02-26 10:18 pm S 11.1 12.0----30.10- 64.2 61.0----
2024-02-26 10:12 pm S 11.1 12.0----30.10- 64.2 61.0----
2024-02-26 10:06 pm S 9.9 12.0----30.10- 64.2 61.0----
2024-02-26 10:00 pm S 9.9 12.0----30.10+0.00 64.2 61.0----
2024-02-26 09:54 pm S 9.9 11.1----30.10- 64.2 61.0----
2024-02-26 09:48 pm S 9.9 11.1----30.10- 64.0 61.0----
2024-02-26 09:42 pmSSW 9.9 12.0----30.10- 64.2 61.2----
2024-02-26 09:36 pmSSW 9.9 11.1----30.10- 64.2 61.2----
2024-02-26 09:30 pmSSW 8.9 11.1----30.11- 64.2 61.2----
2024-02-26 09:24 pmSSW 8.9 12.0----30.11- 64.2 61.2----
2024-02-26 09:18 pmSSW 8.9 11.1----30.11- 64.2 61.2----
2024-02-26 09:12 pm S 8.9 11.1----30.11- 64.2 61.2----
2024-02-26 09:06 pmSSW 8.9 12.0----30.11- 64.2 61.2----
2024-02-26 09:00 pmSSW 8.9 11.1----30.11+0.01- 61.2----
2024-02-26 08:54 pmSSW 8.9 9.9----30.11-- 61.2----
2024-02-26 08:48 pmSSW 8.0 9.9----30.11-- 61.2----
2024-02-26 08:42 pmSSW 8.0 9.9----30.10-- 61.2----
2024-02-26 08:36 pmSSW 8.9 12.0----30.10-- 61.2----
2024-02-26 08:30 pmSSW 8.0 9.9----30.10- 64.4 61.2----
2024-02-26 08:24 pmSSW 8.0 8.9----30.10- 64.6 61.2----
2024-02-26 08:18 pmSSW 8.0 11.1----30.09- 64.6 61.2----
2024-02-26 08:12 pmSSW 8.9 11.1----30.09- 64.6 61.2----
2024-02-26 08:06 pmSSW 8.9 11.1----30.09- 64.6 61.2----
2024-02-26 08:00 pmSSW 9.9 12.0----30.08-0.04 64.6-----
2024-02-26 07:54 pmSSW 9.9 12.0----30.08- 64.6-----
2024-02-26 07:48 pmSSW 8.9 11.1----30.09- 64.6 61.2----
2024-02-26 07:42 pmSSW 8.9 11.1----30.09- 64.6 61.2----
2024-02-26 07:36 pmSSW 8.9 12.0----30.09- 64.4 61.2----
2024-02-26 07:30 pmSSW 8.9 11.1----30.09-------
2024-02-26 07:24 pmSSW 9.9 12.0----30.09-------
2024-02-26 07:18 pmSSW 8.9 11.1----30.09- 64.4 61.0----
2024-02-26 07:12 pmSSW 8.9 9.9----30.09- 64.6 61.0----
2024-02-26 07:06 pmSSW 8.0 11.1----30.09- 64.2 61.0----
2024-02-26 07:00 pm S 8.0 8.9----30.09-0.03 64.0 61.0----
2024-02-26 06:54 pm S 8.0 8.9----30.09- 64.0 61.0----
2024-02-26 06:48 pm S 8.0 8.9----30.10- 64.0 61.0----
2024-02-26 06:42 pm S 8.0 8.9----30.10- 64.0 61.0----
2024-02-26 06:36 pm S 8.0 11.1----30.10- 64.0 61.0----
2024-02-26 06:30 pm S 8.9 12.0----30.10-------
2024-02-26 06:24 pm S 8.9 11.1----30.10-------
2024-02-26 06:18 pm S 9.9 13.0----30.10- 64.4 61.0----
2024-02-26 06:12 pm S 9.9 12.0----30.10- 64.6 61.0----
2024-02-26 06:06 pm S 9.9 13.0----30.10- 64.4 61.0----
2024-02-26 06:00 pm S 9.9 12.0----30.10-0.04 64.6 61.0----
2024-02-26 05:54 pm S 8.9 11.1----30.10- 64.6 61.0----
2024-02-26 05:48 pm S 8.0 11.1----30.10- 64.8 61.0----
2024-02-26 05:42 pm S 8.0 9.9----30.10- 64.8 61.0----
2024-02-26 05:36 pm S 8.9 9.9----30.11- 64.8 61.0----
2024-02-26 05:30 pm S 7.0 8.9----30.11- 64.4 61.0----
2024-02-26 05:24 pm S 7.0 8.0----30.11- 64.6 61.0----
2024-02-26 05:18 pm S 8.0 8.9----30.12- 64.6 61.0----
2024-02-26 05:12 pm S 7.0 9.9----30.12- 64.6 61.0----
2024-02-26 05:06 pm S 8.0 9.9----30.12- 64.9 61.0----
2024-02-26 05:00 pm S 7.0 8.9----30.12-0.04 64.8 61.0----
2024-02-26 04:54 pm S 7.0 8.9----30.12- 64.8 61.0----
2024-02-26 04:48 pm S 7.0 8.9----30.12- 64.8 61.0----
2024-02-26 04:42 pm S 7.0 8.0----30.12- 64.9 61.0----
2024-02-26 04:36 pm S 7.0 8.0----30.12- 65.1 61.0----
2024-02-26 04:30 pm S 6.0 7.0----30.12- 64.9 61.0----
2024-02-26 04:24 pm S 6.0 7.0----30.13- 64.9 61.0----
2024-02-26 04:18 pm S 6.0 7.0----30.12- 64.8 61.0----
2024-02-26 04:12 pm S 6.0 7.0----30.13- 64.8 61.0----
2024-02-26 04:06 pm S 6.0 7.0----30.13- 64.8 61.0----
2024-02-26 04:00 pm S 6.0 7.0----30.13-0.06 64.6 61.0----
2024-02-26 03:54 pm S 6.0 7.0----30.13- 64.2 61.0----
2024-02-26 03:48 pm S 6.0 8.0----30.13-- 61.0----
2024-02-26 03:42 pm S 7.0 8.0----30.13-- 61.2----
2024-02-26 03:36 pm S 6.0 8.0----30.13-- 61.0----
2024-02-26 03:30 pm S 7.0 8.0----30.13- 63.9 61.0----
2024-02-26 03:24 pm S 7.0 8.0----30.13- 63.7 61.0----
2024-02-26 03:18 pm S 7.0 8.0----30.13- 63.5-----
2024-02-26 03:12 pm S 7.0 8.0----30.14- 63.7-----
2024-02-26 03:06 pm S 8.0 9.9----30.14- 63.7-----
2024-02-26 03:00 pm S 8.0 8.9----30.14-0.07 63.5 61.0----
2024-02-26 02:54 pm S 8.0 8.9----30.14- 63.5 61.0----
2024-02-26 02:48 pm S 8.0 8.9----30.14- 63.5 61.0----
2024-02-26 02:42 pm S 6.0 8.0----30.14- 63.3 61.0----
2024-02-26 02:36 pm S 8.0 9.9----30.14- 63.3 61.0----
2024-02-26 02:30 pm S 8.9 9.9----30.14- 63.5 61.0----
2024-02-26 02:24 pm S 8.9 9.9----30.15- 63.5 61.0----
2024-02-26 02:18 pm S 8.0 9.9----30.15- 63.3 61.0----
2024-02-26 02:12 pm S 8.9 9.9----30.15- 63.3 61.0----
2024-02-26 02:06 pm S 8.0 9.9----30.16- 63.3 61.0----
2024-02-26 02:00 pm S 8.9 9.9----30.16-0.06 63.3 61.0----
2024-02-26 01:54 pm S 8.0 8.9----30.16- 63.3 61.0----
2024-02-26 01:48 pmSSE 8.0 8.9----30.16- 63.9 61.0----
2024-02-26 01:42 pmSSE 8.0 8.9----30.16- 63.9 61.0----
2024-02-26 01:36 pmSSE 7.0 8.9----30.16- 64.2 61.0----
2024-02-26 01:30 pmSSE 7.0 8.9----30.17- 64.4 61.0----
2024-02-26 01:24 pmSSE 7.0 8.0----30.17- 64.2 61.0----
2024-02-26 01:18 pmSSE 7.0 8.0----30.18- 64.2 61.0----
2024-02-26 01:12 pmSSE 6.0 8.0----30.18- 64.0 61.0----
2024-02-26 01:06 pmSSE 5.1 7.0----30.19- 64.2 61.0----
2024-02-26 01:00 pmSSE 6.0 7.0----30.19-0.02 64.0 60.8----
2024-02-26 12:54 pm SE 5.1 6.0----30.20- 63.7 60.8----
2024-02-26 12:48 pmSSE 5.1 7.0----30.20- 63.9 60.8----
2024-02-26 12:42 pmSSE 5.1 7.0----30.20- 63.9 60.8----
2024-02-26 12:36 pm SE 5.1 7.0----30.20- 63.1 60.8----
2024-02-26 12:30 pm SE 5.1 7.0----30.21- 63.0 60.8----
2024-02-26 12:24 pm SE 5.1 7.0----30.21- 63.1 60.8----
2024-02-26 12:18 pm SE 6.0 7.0----30.21- 63.0 60.6----
2024-02-26 12:12 pm SE 5.1 6.0----30.21- 63.1 60.8----
2024-02-26 12:06 pm SE 5.1 7.0----30.21- 63.1 60.8----
2024-02-26 12:00 pm SE 5.1 6.0----30.21+0.01 63.0 60.8----
2024-02-26 11:54 am SE 5.1 7.0----30.21- 63.1 60.6----
2024-02-26 11:48 am SE 4.1 6.0----30.22- 63.3 60.6----
2024-02-26 11:42 am SE 5.1 7.0----30.22- 63.0 60.6----
2024-02-26 11:36 am SE 5.1 7.0----30.22- 62.8 60.6----
2024-02-26 11:30 am SE 5.1 6.0----30.22- 62.8 60.6----
2024-02-26 11:24 am SE 5.1 6.0----30.22- 62.6 60.6----
2024-02-26 11:18 am SE 4.1 6.0----30.22- 62.6 60.6----
2024-02-26 11:12 am SE 5.1 6.0----30.22- 62.6 60.6----
2024-02-26 11:06 am SE 5.1 6.0----30.22- 62.4 60.4----
2024-02-26 11:00 am SE 5.1 6.0----30.22+0.03 62.4 60.4----
2024-02-26 10:54 am SE 5.1 6.0----30.22- 62.2 60.4----
2024-02-26 10:48 am SE 5.1 6.0----30.22- 62.2 60.4----
2024-02-26 10:42 am SE 5.1 6.0----30.21- 62.2 60.4----
2024-02-26 10:36 am SE 4.1 6.0----30.22- 62.1 60.4----
2024-02-26 10:30 am SE 5.1 6.0----30.21- 61.9 60.4----
2024-02-26 10:24 amESE 5.1 6.0----30.21- 61.7 60.4----
2024-02-26 10:18 amESE 5.1 6.0----30.21- 61.7 60.4----
2024-02-26 10:12 amESE 4.1 5.1----30.22- 61.5 60.4----
2024-02-26 10:06 amESE 4.1 5.1----30.22- 61.3 60.4----
2024-02-26 10:00 amESE 4.1 5.1----30.22+0.04 61.2 60.4----
2024-02-26 09:54 amESE 4.1 5.1----30.21- 61.3 60.3----
2024-02-26 09:48 amESE 4.1 4.1----30.21- 61.2 60.3----
2024-02-26 09:42 amESE 2.9 4.1----30.21- 61.0 60.3----
2024-02-26 09:36 amESE 2.9 4.1----30.21- 61.0 60.3----
2024-02-26 09:30 amESE 2.9 5.1----30.21- 61.0 60.3----
2024-02-26 09:24 amESE 4.1 5.1----30.21- 60.8 60.3----
2024-02-26 09:18 amESE 4.1 5.1----30.21- 61.0 60.3----
2024-02-26 09:12 amESE 5.1 6.0----30.21- 61.0 60.1----
2024-02-26 09:06 amESE 4.1 5.1----30.20- 60.8 60.1----
2024-02-26 09:00 amESE 4.1 5.1----30.20+0.04 60.6 60.1----
2024-02-26 08:54 amESE 4.1 5.1----30.20- 60.4 60.1----
2024-02-26 08:48 am E 1.0 1.9----30.20- 59.7 60.1----
2024-02-26 08:42 am E 1.9 2.9----30.19- 59.0 60.3----
2024-02-26 08:36 am- 0.0 2.9----30.19- 58.5 60.3----
2024-02-26 08:30 amENE 1.9 2.9----30.19- 57.2 60.3----
2024-02-26 08:24 am NE 1.0 1.9----30.19- 56.3 60.3----
2024-02-26 08:18 amENE 1.9 1.9----30.19- 55.2 60.3----
2024-02-26 08:12 amNNE 1.9 2.9----30.19- 54.0 60.3----
2024-02-26 08:06 amNNE 2.9 2.9----30.19- 53.1 60.3----
2024-02-26 08:00 amNNE 2.9 4.1----30.19+0.03 52.9 60.3----
2024-02-26 07:54 amNNE 4.1 4.1----30.19- 52.9 60.3----
2024-02-26 07:48 am N 2.9 4.1----30.19- 52.7 60.3----
2024-02-26 07:42 am N 4.1 5.1----30.19- 52.5 60.3----
2024-02-26 07:36 am N 4.1 4.1----30.19- 52.3 60.3----
2024-02-26 07:30 am N 4.1 4.1----30.19- 52.2 60.3----
2024-02-26 07:24 am N 4.1 4.1----30.18- 52.0 60.3----
2024-02-26 07:18 am N 4.1 4.1----30.18- 51.8 60.3----
2024-02-26 07:12 am N 2.9 4.1----30.18- 51.8 60.3----
2024-02-26 07:06 am N 4.1 4.1----30.18- 51.6 60.3----
2024-02-26 07:00 am N 2.9 4.1----30.17+0.02 51.6 60.3----
2024-02-26 06:54 amNNE 4.1 4.1----30.17- 51.4 60.3----
2024-02-26 06:48 amNNE 2.9 4.1----30.17- 51.6 60.4----
2024-02-26 06:42 am N 2.9 4.1----30.17- 51.6 60.4----
2024-02-26 06:36 am N 4.1 5.1----30.17- 51.4 60.4----
2024-02-26 06:30 am N 2.9 4.1----30.17- 51.3 60.4----
2024-02-26 06:24 am N 2.9 4.1----30.17- 50.9 60.4----
2024-02-26 06:18 amNNE 2.9 4.1----30.17- 50.7 60.4----
2024-02-26 06:12 amNNE 2.9 5.1----30.17- 50.7 60.4----
2024-02-26 06:06 am N 4.1 6.0----30.16- 50.5 60.6----
2024-02-26 06:00 amNNE 5.1 5.1----30.16+0.00 50.7 60.6----
2024-02-26 05:54 am N 4.1 5.1----30.16- 50.5 60.6----
2024-02-26 05:48 am N 4.1 4.1----30.16- 50.5 60.6----
2024-02-26 05:42 amNNE 4.1 4.1----30.16- 50.5 60.6----
2024-02-26 05:36 am N 2.9 5.1----30.16- 50.4 60.6----
2024-02-26 05:30 am N 2.9 5.1----30.16- 50.7 60.6----
2024-02-26 05:24 amNNE 2.9 5.1----30.16- 51.1 60.6----
2024-02-26 05:18 amNNE 2.9 5.1----30.16- 51.1 60.8----
2024-02-26 05:12 amNNE 4.1 5.1----30.16- 51.3 60.8----
2024-02-26 05:06 amNNE 4.1 5.1----30.16- 51.6 60.8----
2024-02-26 05:00 amNNE 4.1 4.1----30.16-0.01 52.0 60.8----
2024-02-26 04:54 amNNE 2.9 4.1----30.15- 52.2 60.8----
2024-02-26 04:48 am N 1.9 2.9----30.15- 52.0 60.8----
2024-02-26 04:42 amNNE 2.9 4.1----30.15- 52.0 60.8----
2024-02-26 04:36 am N 2.9 2.9----30.15- 51.6 60.8----
2024-02-26 04:30 am N 1.9 2.9----30.16- 51.8 60.8----
2024-02-26 04:24 am N 2.9 2.9----30.16- 52.0 60.8----
2024-02-26 04:18 am N 1.9 2.9----30.16- 52.2 60.8----
2024-02-26 04:12 am N 1.9 2.9----30.15- 52.3 60.8----
2024-02-26 04:06 am N 1.9 1.9----30.16- 52.3 60.8----
2024-02-26 04:00 am N 1.9 1.9----30.15-0.02 52.3 60.8----
2024-02-26 03:54 am N 1.0 1.9----30.16- 52.2 61.0----
2024-02-26 03:48 am N 1.9 1.9----30.16- 52.2 61.0----
2024-02-26 03:42 am N 1.9 2.9----30.15- 52.5 61.0----
2024-02-26 03:36 am N 1.9 1.9----30.15- 52.7 61.0----
2024-02-26 03:30 am N 1.9 1.9----30.15- 52.7 61.0----
2024-02-26 03:24 am N 1.0 1.9----30.15- 52.7 61.0----
2024-02-26 03:18 amNNE 1.9 1.9----30.15- 52.7 61.0----
2024-02-26 03:12 am N 1.9 1.9----30.15- 52.7 61.0----
2024-02-26 03:06 amNNE 1.0 1.9----30.16- 52.9 61.0----
2024-02-26 03:00 am N 1.0 1.9----30.16-0.02 53.1 61.0----
2024-02-26 02:54 am N 1.9 2.9----30.16- 52.9 61.0----
2024-02-26 02:48 amNNE 1.9 2.9----30.16- 53.1 61.0----
2024-02-26 02:42 am N 1.9 1.9----30.16- 52.7 61.0----
2024-02-26 02:36 am N 1.9 1.9----30.16- 52.5 61.0----
2024-02-26 02:30 am N 1.0 1.9----30.16- 52.3 61.0----
2024-02-26 02:24 amNNW 1.0 1.9----30.16- 52.5 61.0----
2024-02-26 02:18 am N 1.0 1.9----30.16- 52.9 61.0----
2024-02-26 02:12 amNNE 1.9 2.9----30.16- 53.2 61.0----
2024-02-26 02:06 amNNE 2.9 2.9----30.16- 53.1 61.0----
2024-02-26 02:00 amNNE 2.9 2.9----30.16-0.01 53.2 61.0----
2024-02-26 01:54 am N 1.9 2.9----30.16- 53.2 61.0----